Weather History for Walnut Ridge, AR

Change the Weather History Date:

Wednesday, April 3, 2013

  Actual Average Record
Temperature  
Mean Temperature 43 °F -  
Max Temperature 51 °F 64 °F 82 °F (2007)
Min Temperature 35 °F 46 °F 35 °F (2013)
Degree Days  
Heating Degree Days 22    
Moisture  
Dew Point 29 °F    
Average Humidity 56    
Maximum Humidity 75    
Minimum Humidity 40    
Precipitation  
Precipitation 0.00 in - - ()
Sea Level Pressure  
Sea Level Pressure 30.25 in    
Wind  
Wind Speed 11 mph (NNE)    
Max Wind Speed 21 mph    
Max Gust Speed 26 mph    
Visibility 10 miles    
Events      
Averages and records for this station are not official NWS values.
T = Trace of Precipitation, MM = Missing Value Source: NWS Daily Summary

Daily Weather History Graph

Daily Weather History Graph

Search for Another Location

Airport:

Trip Planner

Search our weather history database for the weather conditions in past years. The results will help you decide how hot, cold, wet, or windy it might be!

Date:

Astronomy

Apr. 03, 2013 Rise Set
Actual Time 6:46 AM CDT 7:27 PM CDT
Civil Twilight 6:20 AM CDT 7:53 PM CDT
Nautical Twilight 5:50 AM CDT 8:24 PM CDT
Astronomical Twilight 5:18 AM CDT 8:55 PM CDT
Moon 2:16 AM CDT (4/3) 12:51 PM CDT (4/3)
Length of Visible Light 13h 32m
Length of Day
12h 40m
Last Quarter, 44% of the Moon is Illuminated
Apr 3
Last Quarter
Apr 10
New
Apr 18
First Quarter
Apr 25
Full
May 2
Last Quarter

Hourly Weather History & Observations

Time (CDT) Temp. Windchill Dew Point Humidity Pressure Visibility Wind Dir Wind Speed Gust Speed Precip Events Conditions
12:15 AM 41.0 °F 36.4 °F 32.0 °F 70% 30.26 in 10.0 mi North 6.9 mph - N/A   Overcast
12:35 AM 41.0 °F 37.1 °F 32.0 °F 70% 30.26 in 10.0 mi North 5.8 mph - N/A   Mostly Cloudy
12:55 AM 41.0 °F 37.1 °F 32.0 °F 70% 30.26 in 10.0 mi NNE 5.8 mph - N/A   Partly Cloudy
1:15 AM 39.2 °F 34.2 °F 32.0 °F 75% 30.26 in 10.0 mi NNE 6.9 mph - N/A   Partly Cloudy
1:35 AM 39.2 °F 35.0 °F 32.0 °F 75% 30.27 in 10.0 mi North 5.8 mph - N/A   Clear
1:55 AM 39.2 °F 35.9 °F 30.2 °F 70% 30.28 in 10.0 mi North 4.6 mph - N/A   Clear
2:15 AM 39.2 °F 35.0 °F 30.2 °F 70% 30.26 in 10.0 mi NNE 5.8 mph - N/A   Clear
2:35 AM 39.2 °F 34.2 °F 30.2 °F 70% 30.24 in 10.0 mi NNE 6.9 mph - N/A   Clear
2:55 AM 39.2 °F 33.0 °F 30.2 °F 70% 30.24 in 10.0 mi NNE 9.2 mph - N/A   Clear
3:15 AM 39.2 °F 32.5 °F 28.4 °F 65% 30.24 in 10.0 mi North 10.4 mph - N/A   Clear
3:35 AM 37.4 °F 30.8 °F 28.4 °F 70% 30.23 in 10.0 mi NNE 9.2 mph - N/A   Clear
3:55 AM 37.4 °F 30.3 °F 28.4 °F 70% 30.23 in 10.0 mi NNE 10.4 mph - N/A   Clear
4:15 AM 37.4 °F 29.3 °F 26.6 °F 65% 30.22 in 10.0 mi NNE 12.7 mph - N/A   Clear
4:35 AM 37.4 °F 30.3 °F 26.6 °F 65% 30.25 in 10.0 mi NE 10.4 mph - N/A   Clear
4:55 AM 37.4 °F 30.8 °F 28.4 °F 70% 30.26 in 10.0 mi NE 9.2 mph - N/A   Clear
5:15 AM 37.4 °F 30.8 °F 28.4 °F 70% 30.27 in 10.0 mi NNE 9.2 mph - N/A   Clear
5:35 AM 37.4 °F 31.4 °F 26.6 °F 65% 30.28 in 10.0 mi NNE 8.1 mph - N/A   Clear
5:55 AM 35.6 °F 28.6 °F 28.4 °F 75% 30.29 in 10.0 mi NNE 9.2 mph - N/A   Clear
6:15 AM 35.6 °F 28.6 °F 28.4 °F 75% 30.29 in 10.0 mi NNE 9.2 mph - N/A   Clear
6:35 AM 37.4 °F 30.3 °F 28.4 °F 70% 30.28 in 10.0 mi NNE 10.4 mph - N/A   Clear
6:55 AM 37.4 °F 32.8 °F 28.4 °F 70% 30.28 in 10.0 mi NNE 5.8 mph - N/A   Clear
7:15 AM 35.6 °F 29.9 °F 28.4 °F 75% 30.30 in 9.0 mi North 6.9 mph - N/A   Clear
7:35 AM 37.4 °F 30.3 °F 28.4 °F 70% 30.30 in 1.5 mi NNE 10.4 mph - N/A   Clear
7:55 AM 37.4 °F 29.8 °F 28.4 °F 70% 30.30 in 9.0 mi NNE 11.5 mph - N/A   Clear
8:15 AM 37.4 °F 28.9 °F 28.4 °F 70% 30.30 in 10.0 mi NNE 13.8 mph - N/A   Clear
8:35 AM 39.2 °F 30.2 °F 26.6 °F 61% 30.29 in 10.0 mi NNE 17.3 mph - N/A   Clear
8:55 AM 39.2 °F 30.2 °F 26.6 °F 61% 30.30 in 10.0 mi NE 17.3 mph - N/A   Clear
9:15 AM 39.2 °F 30.5 °F 28.4 °F 65% 30.29 in 10.0 mi NE 16.1 mph - N/A   Clear
9:35 AM 42.8 °F 35.1 °F 28.4 °F 57% 30.31 in 10.0 mi NE 16.1 mph - N/A   Clear
9:55 AM 42.8 °F 34.8 °F 28.4 °F 57% 30.30 in 10.0 mi NE 17.3 mph - N/A   Clear
10:15 AM 44.6 °F 37.4 °F 28.4 °F 53% 30.31 in 10.0 mi NE 16.1 mph 23.0 mph N/A   Clear
10:35 AM 44.6 °F 36.9 °F 28.4 °F 53% 30.31 in 10.0 mi NE 18.4 mph 23.0 mph N/A   Clear
11:15 AM 46.4 °F 39.2 °F 28.4 °F 50% 30.30 in 10.0 mi NE 18.4 mph 23.0 mph N/A   Clear
11:35 AM 46.4 °F 39.2 °F 28.4 °F 50% 30.29 in 10.0 mi NE 18.4 mph 26.5 mph N/A   Clear
11:55 AM 46.4 °F 39.0 °F 28.4 °F 50% 30.28 in 10.0 mi NE 19.6 mph 25.3 mph N/A   Clear
12:15 PM 46.4 °F 39.0 °F 28.4 °F 50% 30.29 in 10.0 mi NE 19.6 mph 25.3 mph N/A   Clear
12:35 PM 48.2 °F - 28.4 °F 46% 30.28 in 10.0 mi NE 18.4 mph 23.0 mph N/A   Clear
12:55 PM 48.2 °F - 28.4 °F 46% 30.27 in 10.0 mi NE 19.6 mph - N/A   Clear
1:15 PM 48.2 °F - 28.4 °F 46% 30.28 in 10.0 mi NE 20.7 mph 25.3 mph N/A   Clear
1:35 PM 48.2 °F - 28.4 °F 46% 30.28 in 10.0 mi NE 17.3 mph 26.5 mph N/A   Clear
1:55 PM 48.2 °F - 28.4 °F 46% 30.27 in 10.0 mi NE 17.3 mph 23.0 mph N/A   Clear
2:15 PM 50.0 °F - 26.6 °F 40% 30.26 in 10.0 mi NE 18.4 mph 24.2 mph N/A   Clear
2:35 PM 50.0 °F - 28.4 °F 43% 30.25 in 10.0 mi NE 16.1 mph 25.3 mph N/A   Clear
2:55 PM 50.0 °F - 26.6 °F 40% 30.24 in 10.0 mi NE 20.7 mph 25.3 mph N/A   Clear
3:15 PM 50.0 °F - 28.4 °F 43% 30.24 in 10.0 mi NE 18.4 mph 23.0 mph N/A   Clear
3:35 PM 50.0 °F - 28.4 °F 43% 30.23 in 10.0 mi NE 15.0 mph - N/A   Clear
3:55 PM 51.8 °F - 28.4 °F 41% 30.23 in 10.0 mi NE 16.1 mph - N/A   Clear
4:15 PM 51.8 °F - 28.4 °F 41% 30.22 in 10.0 mi NE 16.1 mph - N/A   Clear
4:35 PM 51.8 °F - 28.4 °F 41% 30.22 in 10.0 mi NE 17.3 mph - N/A   Clear
4:55 PM 51.8 °F - 28.4 °F 41% 30.22 in 10.0 mi NE 11.5 mph - N/A   Clear
5:15 PM 51.8 °F - 28.4 °F 41% 30.21 in 10.0 mi NE 15.0 mph - N/A   Clear
5:35 PM 51.8 °F - 30.2 °F 44% 30.20 in 10.0 mi NNE 16.1 mph - N/A   Clear
5:55 PM 51.8 °F - 28.4 °F 41% 30.21 in 10.0 mi NNE 17.3 mph - N/A   Clear
6:15 PM 50.0 °F - 26.6 °F 40% 30.20 in 10.0 mi NNE 16.1 mph - N/A   Scattered Clouds
6:35 PM 48.2 °F - 30.2 °F 50% 30.20 in 10.0 mi NE 12.7 mph 18.4 mph N/A   Overcast
6:55 PM 48.2 °F - 30.2 °F 50% 30.19 in 10.0 mi NNE 12.7 mph - N/A   Overcast
7:15 PM 48.2 °F - 30.2 °F 50% 30.20 in 10.0 mi NNE 11.5 mph - N/A   Mostly Cloudy
7:35 PM 48.2 °F - 30.2 °F 50% 30.20 in 10.0 mi NNE 10.4 mph - N/A   Mostly Cloudy
7:55 PM 48.2 °F - 30.2 °F 50% 30.20 in 10.0 mi NNE 10.4 mph - N/A   Partly Cloudy
8:15 PM 46.4 °F 41.9 °F 30.2 °F 53% 30.20 in 10.0 mi NNE 9.2 mph - N/A   Clear
8:35 PM 46.4 °F 41.9 °F 30.2 °F 53% 30.19 in 10.0 mi NNE 9.2 mph - N/A   Clear
8:55 PM 46.4 °F 41.5 °F 30.2 °F 53% 30.20 in 10.0 mi NNE 10.4 mph - N/A   Clear
9:15 PM 46.4 °F 41.9 °F 30.2 °F 53% 30.20 in 10.0 mi NNE 9.2 mph - N/A   Clear
9:35 PM 46.4 °F 41.1 °F 30.2 °F 53% 30.20 in 10.0 mi NE 11.5 mph - N/A   Clear
9:55 PM 46.4 °F 41.1 °F 30.2 °F 53% 30.20 in 10.0 mi NE 11.5 mph - N/A   Clear
10:15 PM 46.4 °F 41.5 °F 30.2 °F 53% 30.20 in 10.0 mi NE 10.4 mph - N/A   Clear
10:35 PM 46.4 °F 40.7 °F 30.2 °F 53% 30.19 in 10.0 mi NE 12.7 mph - N/A   Clear
10:55 PM 46.4 °F 40.7 °F 30.2 °F 53% 30.19 in 10.0 mi NE 12.7 mph - N/A   Partly Cloudy
11:15 PM 46.4 °F 41.1 °F 30.2 °F 53% 30.19 in 10.0 mi NE 11.5 mph - N/A   Partly Cloudy
11:35 PM 46.4 °F 41.5 °F 28.4 °F 50% 30.20 in 10.0 mi NE 10.4 mph - N/A   Scattered Clouds
11:55 PM 46.4 °F 41.5 °F 28.4 °F 50% 30.20 in 10.0 mi NE 10.4 mph - N/A   Mostly Cloudy